Time,TemperatureF,DewpointF,PressureIn,WindDirection,WindDirectionDegrees,WindSpeedMPH,WindSpeedGustMPH,Humidity,HourlyPrecipIn,Conditions,Clouds,dailyrainin,SolarRadiationWatts/m^2,SoftwareType,DateUTC
2013-06-10 00:02:00,77.9,73.7,30.08,East,95,0.0,0.0,87,0.00,,,0.00,0,Wunderground v.1.15,2013-06-10 04:02:00,
2013-06-10 00:07:00,77.9,73.7,30.08,East,95,0.0,0.0,87,0.00,,,0.00,0,Wunderground v.1.15,2013-06-10 04:07:00,
2013-06-10 00:12:00,77.9,73.7,30.07,East,95,0.0,0.0,87,0.00,,,0.00,0,Wunderground v.1.15,2013-06-10 04:12:00,
2013-06-10 00:17:00,77.9,73.7,30.08,East,95,0.0,0.0,87,0.00,,,0.00,0,Wunderground v.1.15,2013-06-10 04:17:00,
2013-06-10 00:22:00,77.7,73.5,30.08,East,95,0.0,0.0,87,0.00,,,0.00,0,Wunderground v.1.15,2013-06-10 04:22:00,
2013-06-10 00:27:00,77.7,73.9,30.08,East,95,0.0,0.0,88,0.00,,,0.00,0,Wunderground v.1.15,2013-06-10 04:27:00,
2013-06-10 00:32:00,77.7,73.9,30.08,East,95,0.0,0.0,88,0.00,,,0.00,0,Wunderground v.1.15,2013-06-10 04:32:00,
2013-06-10 00:37:00,77.7,73.9,30.08,East,95,0.0,0.0,88,0.00,,,0.00,0,Wunderground v.1.15,2013-06-10 04:37:00,
2013-06-10 00:42:00,77.7,73.9,30.08,East,95,0.0,0.0,88,0.00,,,0.00,0,Wunderground v.1.15,2013-06-10 04:42:00,
2013-06-10 00:52:00,77.7,74.2,30.08,East,95,0.0,1.0,89,0.00,,,0.00,0,Wunderground v.1.15,2013-06-10 04:52:00,
2013-06-10 00:57:00,77.7,74.2,30.08,East,95,1.0,2.0,89,0.00,,,0.00,0,Wunderground v.1.15,2013-06-10 04:57:00,
2013-06-10 01:02:00,77.7,74.2,30.08,ENE,73,1.0,1.0,89,0.00,,,0.00,0,Wunderground v.1.15,2013-06-10 05:02:00,
2013-06-10 01:12:00,77.7,74.2,30.07,ENE,73,1.0,1.0,89,0.00,,,0.00,0,Wunderground v.1.15,2013-06-10 05:12:00,
2013-06-10 01:17:00,77.7,74.5,30.07,ENE,73,0.0,1.0,90,0.00,,,0.00,0,Wunderground v.1.15,2013-06-10 05:17:00,
2013-06-10 01:27:00,77.7,74.5,30.07,ENE,73,0.0,1.0,90,0.00,,,0.00,0,Wunderground v.1.15,2013-06-10 05:27:00,
2013-06-10 01:32:00,77.7,74.5,30.07,East,89,1.0,1.0,90,0.00,,,0.00,0,Wunderground v.1.15,2013-06-10 05:32:00,
2013-06-10 01:37:00,77.7,74.5,30.07,East,99,1.0,1.0,90,0.00,,,0.00,0,Wunderground v.1.15,2013-06-10 05:37:00,
2013-06-10 01:42:00,77.7,74.5,30.07,East,99,0.0,0.0,90,0.00,,,0.00,0,Wunderground v.1.15,2013-06-10 05:42:00,
2013-06-10 01:52:00,77.7,74.5,30.06,East,95,1.0,1.0,90,0.00,,,0.00,0,Wunderground v.1.15,2013-06-10 05:52:00,
2013-06-10 01:57:00,77.7,74.5,30.06,East,95,0.0,1.0,90,0.00,,,0.00,0,Wunderground v.1.15,2013-06-10 05:57:00,
2013-06-10 02:02:00,77.7,74.9,30.06,East,95,0.0,2.0,91,0.00,,,0.00,0,Wunderground v.1.15,2013-06-10 06:02:00,
2013-06-10 02:12:00,77.7,74.9,30.06,ESE,109,2.0,2.0,91,0.00,,,0.00,0,Wunderground v.1.15,2013-06-10 06:12:00,
2013-06-10 02:22:00,77.6,74.8,30.06,East,100,1.0,3.0,91,0.00,,,0.00,0,Wunderground v.1.15,2013-06-10 06:22:00,
2013-06-10 02:27:00,77.6,74.8,30.06,East,92,2.0,3.0,91,0.00,,,0.00,0,Wunderground v.1.15,2013-06-10 06:27:00,
2013-06-10 02:32:00,77.6,74.8,30.06,ESE,109,2.0,2.0,91,0.00,,,0.00,0,Wunderground v.1.15,2013-06-10 06:32:00,
2013-06-10 02:37:00,77.6,74.8,30.06,ESE,109,1.0,2.0,91,0.00,,,0.00,0,Wunderground v.1.15,2013-06-10 06:37:00,
2013-06-10 02:42:00,77.6,74.8,30.06,ESE,109,0.0,0.0,91,0.00,,,0.00,0,Wunderground v.1.15,2013-06-10 06:42:00,
2013-06-10 02:47:00,77.4,74.6,30.06,ESE,109,0.0,0.0,91,0.00,,,0.00,0,Wunderground v.1.15,2013-06-10 06:47:00,
2013-06-10 02:52:00,77.4,74.6,30.06,ESE,109,0.0,0.0,91,0.00,,,0.00,0,Wunderground v.1.15,2013-06-10 06:52:00,
2013-06-10 03:02:00,77.2,74.4,30.05,ESE,112,0.0,2.0,91,0.00,,,0.00,0,Wunderground v.1.15,2013-06-10 07:02:00,
2013-06-10 03:07:00,77.2,74.4,30.05,SE,131,1.0,2.0,91,0.00,,,0.00,0,Wunderground v.1.15,2013-06-10 07:07:00,
2013-06-10 03:17:00,77.0,74.5,30.04,East,100,1.0,2.0,92,0.00,,,0.00,0,Wunderground v.1.15,2013-06-10 07:17:00,
2013-06-10 03:22:00,77.0,74.5,30.04,East,100,1.0,1.0,92,0.00,,,0.00,0,Wunderground v.1.15,2013-06-10 07:22:00,
2013-06-10 03:32:00,77.0,74.5,30.04,SE,133,2.0,6.0,92,0.00,,,0.00,0,Wunderground v.1.15,2013-06-10 07:32:00,
2013-06-10 03:37:00,77.0,74.5,30.04,ESE,103,2.0,6.0,92,0.00,,,0.00,0,Wunderground v.1.15,2013-06-10 07:37:00,
2013-06-10 03:42:00,77.0,74.5,30.04,SE,134,3.0,3.0,92,0.00,,,0.00,0,Wunderground v.1.15,2013-06-10 07:42:00,
2013-06-10 03:47:00,77.0,74.5,30.04,ESE,114,3.0,7.0,92,0.00,,,0.00,0,Wunderground v.1.15,2013-06-10 07:47:00,
2013-06-10 03:52:00,77.0,74.5,30.04,ESE,112,4.0,4.0,92,0.00,,,0.00,0,Wunderground v.1.15,2013-06-10 07:52:00,
2013-06-10 03:57:00,77.0,74.5,30.05,ESE,117,4.0,4.0,92,0.00,,,0.00,0,Wunderground v.1.15,2013-06-10 07:57:00,
2013-06-10 04:02:00,77.0,74.5,30.05,SE,136,2.0,4.0,92,0.00,,,0.00,0,Wunderground v.1.15,2013-06-10 08:02:00,
2013-06-10 04:07:00,77.0,74.5,30.05,ESE,116,2.0,4.0,92,0.00,,,0.00,0,Wunderground v.1.15,2013-06-10 08:07:00,
2013-06-10 04:17:00,77.0,74.5,30.05,SE,136,3.0,3.0,92,0.00,,,0.00,0,Wunderground v.1.15,2013-06-10 08:17:00,
2013-06-10 04:22:00,77.0,74.5,30.05,ESE,116,2.0,2.0,92,0.00,,,0.00,0,Wunderground v.1.15,2013-06-10 08:22:00,
2013-06-10 04:27:00,77.0,74.5,30.05,SE,134,2.0,2.0,92,0.00,,,0.00,0,Wunderground v.1.15,2013-06-10 08:27:00,
2013-06-10 04:32:00,77.0,74.5,30.05,South,174,2.0,2.0,92,0.00,,,0.00,0,Wunderground v.1.15,2013-06-10 08:32:00,
2013-06-10 04:37:00,77.0,74.5,30.05,SE,127,2.0,2.0,92,0.00,,,0.00,0,Wunderground v.1.15,2013-06-10 08:37:00,
2013-06-10 04:42:00,77.0,74.5,30.05,SSE,150,2.0,4.0,92,0.00,,,0.00,0,Wunderground v.1.15,2013-06-10 08:42:00,
2013-06-10 04:52:00,77.0,74.5,30.04,SE,136,4.0,4.0,92,0.00,,,0.00,0,Wunderground v.1.15,2013-06-10 08:52:00,
2013-06-10 04:57:00,77.0,74.5,30.04,SE,124,4.0,4.0,92,0.00,,,0.00,0,Wunderground v.1.15,2013-06-10 08:57:00,
2013-06-10 05:02:00,77.0,74.5,30.04,SSE,147,3.0,3.0,92,0.00,,,0.00,0,Wunderground v.1.15,2013-06-10 09:02:00,
2013-06-10 05:07:00,77.0,74.5,30.04,SE,130,4.0,4.0,92,0.00,,,0.00,0,Wunderground v.1.15,2013-06-10 09:07:00,
2013-06-10 05:12:00,77.0,74.5,30.04,ESE,114,4.0,4.0,92,0.00,,,0.00,0,Wunderground v.1.15,2013-06-10 09:12:00,
2013-06-10 05:22:00,77.0,74.5,30.04,ESE,123,4.0,4.0,92,0.00,,,0.00,0,Wunderground v.1.15,2013-06-10 09:22:00,
2013-06-10 05:27:00,77.0,74.5,30.04,SE,124,4.0,4.0,92,0.00,,,0.00,0,Wunderground v.1.15,2013-06-10 09:27:00,
2013-06-10 05:32:00,77.0,74.5,30.04,SE,128,4.0,5.0,92,0.00,,,0.00,0,Wunderground v.1.15,2013-06-10 09:32:00,
2013-06-10 05:42:00,77.0,74.5,30.04,SE,133,3.0,3.0,92,0.00,,,0.00,0,Wunderground v.1.15,2013-06-10 09:42:00,
2013-06-10 05:52:00,77.0,74.5,30.04,SE,126,3.0,5.0,92,0.00,,,0.00,0,Wunderground v.1.15,2013-06-10 09:52:00,
2013-06-10 05:57:00,77.0,74.5,30.04,ESE,116,3.0,5.0,92,0.00,,,0.00,0,Wunderground v.1.15,2013-06-10 09:57:00,
2013-06-10 06:02:00,77.0,74.5,30.05,SE,128,3.0,3.0,92,0.00,,,0.00,0,Wunderground v.1.15,2013-06-10 10:02:00,
2013-06-10 06:07:00,77.0,74.5,30.05,SSE,165,3.0,5.0,92,0.00,,,0.00,0,Wunderground v.1.15,2013-06-10 10:07:00,
2013-06-10 06:12:00,77.0,74.5,30.05,SE,126,4.0,4.0,92,0.00,,,0.00,0,Wunderground v.1.15,2013-06-10 10:12:00,
2013-06-10 06:22:00,76.8,74.3,30.04,ESE,121,4.0,4.0,92,0.00,,,0.00,0,Wunderground v.1.15,2013-06-10 10:22:00,
2013-06-10 06:27:00,76.8,74.3,30.04,ESE,121,4.0,6.0,92,0.00,,,0.00,0,Wunderground v.1.15,2013-06-10 10:27:00,
2013-06-10 06:32:00,76.8,74.3,30.04,SE,131,4.0,4.0,92,0.00,,,0.00,0,Wunderground v.1.15,2013-06-10 10:32:00,
2013-06-10 06:42:00,76.8,74.3,30.04,SE,128,3.0,3.0,92,0.00,,,0.00,0,Wunderground v.1.15,2013-06-10 10:42:00,
2013-06-10 06:52:00,76.8,74.6,30.04,SE,133,3.0,3.0,93,0.00,,,0.00,7,Wunderground v.1.15,2013-06-10 10:52:00,
2013-06-10 06:57:00,76.8,74.6,30.04,SE,130,3.0,3.0,93,0.00,,,0.00,11,Wunderground v.1.15,2013-06-10 10:57:00,
2013-06-10 07:02:00,77.0,74.8,30.04,SE,128,3.0,3.0,93,0.00,,,0.00,14,Wunderground v.1.15,2013-06-10 11:02:00,
2013-06-10 07:12:00,77.0,75.5,30.05,SE,133,4.0,4.0,95,0.00,,,0.00,19,Wunderground v.1.15,2013-06-10 11:12:00,
2013-06-10 07:17:00,77.2,75.7,30.05,ESE,117,4.0,4.0,95,0.00,,,0.00,19,Wunderground v.1.15,2013-06-10 11:17:00,
2013-06-10 07:22:00,77.2,75.3,30.05,SE,144,5.0,5.0,94,0.00,,,0.00,32,Wunderground v.1.15,2013-06-10 11:22:00,
2013-06-10 07:32:00,77.4,75.5,30.05,ESE,120,4.0,4.0,94,0.00,,,0.00,37,Wunderground v.1.15,2013-06-10 11:32:00,
2013-06-10 07:37:00,77.4,75.5,30.05,SE,134,3.0,6.0,94,0.00,,,0.00,39,Wunderground v.1.15,2013-06-10 11:37:00,
2013-06-10 07:47:00,77.7,75.8,30.06,ESE,104,5.0,7.0,94,0.00,,,0.00,49,Wunderground v.1.15,2013-06-10 11:47:00,
2013-06-10 07:52:00,77.7,75.5,30.06,ESE,116,4.0,4.0,93,0.00,,,0.00,56,Wunderground v.1.15,2013-06-10 11:52:00,
2013-06-10 07:57:00,77.9,75.7,30.06,SE,126,3.0,5.0,93,0.00,,,0.00,55,Wunderground v.1.15,2013-06-10 11:57:00,
2013-06-10 08:02:00,78.1,75.9,30.06,ESE,109,3.0,3.0,93,0.00,,,0.00,69,Wunderground v.1.15,2013-06-10 12:02:00,
2013-06-10 08:12:00,78.3,76.1,30.07,SE,131,6.0,6.0,93,0.00,,,0.00,86,Wunderground v.1.15,2013-06-10 12:12:00,
2013-06-10 08:17:00,78.5,76.3,30.07,ESE,117,6.0,7.0,93,0.00,,,0.00,86,Wunderground v.1.15,2013-06-10 12:17:00,
2013-06-10 08:22:00,78.6,76.4,30.07,SE,133,5.0,7.0,93,0.00,,,0.00,69,Wunderground v.1.15,2013-06-10 12:22:00,
2013-06-10 08:27:00,78.8,76.3,30.07,ESE,123,5.0,7.0,92,0.00,,,0.00,97,Wunderground v.1.15,2013-06-10 12:27:00,
2013-06-10 08:32:00,78.8,76.3,30.07,ESE,110,6.0,7.0,92,0.00,,,0.00,72,Wunderground v.1.15,2013-06-10 12:32:00,
2013-06-10 08:42:00,78.8,75.9,30.07,SE,134,6.0,6.0,91,0.00,,,0.00,76,Wunderground v.1.15,2013-06-10 12:42:00,
2013-06-10 08:47:00,79.0,76.1,30.07,ESE,114,5.0,6.0,91,0.00,,,0.00,70,Wunderground v.1.15,2013-06-10 12:47:00,
2013-06-10 08:52:00,79.2,76.3,30.07,SE,140,6.0,9.0,91,0.00,,,0.00,116,Wunderground v.1.15,2013-06-10 12:52:00,
2013-06-10 09:02:00,79.8,76.6,30.07,SE,131,7.0,8.0,90,0.00,,,0.00,113,Wunderground v.1.15,2013-06-10 13:02:00,
2013-06-10 09:12:00,80.7,76.8,30.07,ESE,123,6.0,11.0,88,0.00,,,0.00,123,Wunderground v.1.15,2013-06-10 13:12:00,
2013-06-10 09:22:00,81.2,76.3,30.08,SE,140,8.0,8.0,85,0.00,,,0.00,540,Wunderground v.1.15,2013-06-10 13:22:00,
2013-06-10 09:27:00,81.6,76.6,30.08,SE,137,7.0,8.0,85,0.00,,,0.00,274,Wunderground v.1.15,2013-06-10 13:27:00,
2013-06-10 09:32:00,82.4,76.7,30.08,ESE,117,6.0,6.0,83,0.00,,,0.00,686,Wunderground v.1.15,2013-06-10 13:32:00,
2013-06-10 09:37:00,82.4,76.3,30.08,SE,131,6.0,10.0,82,0.00,,,0.00,382,Wunderground v.1.15,2013-06-10 13:37:00,
2013-06-10 09:42:00,82.4,76.3,30.08,South,172,6.0,6.0,82,0.00,,,0.00,336,Wunderground v.1.15,2013-06-10 13:42:00,
2013-06-10 09:47:00,83.0,76.6,30.08,SE,140,6.0,6.0,81,0.00,,,0.00,208,Wunderground v.1.15,2013-06-10 13:47:00,
2013-06-10 09:57:00,83.0,75.8,30.08,SE,140,5.0,5.0,79,0.00,,,0.00,246,Wunderground v.1.15,2013-06-10 13:57:00,
2013-06-10 10:02:00,83.0,75.8,30.08,SSE,147,5.0,8.0,79,0.00,,,0.00,162,Wunderground v.1.15,2013-06-10 14:02:00,
2013-06-10 10:12:00,82.6,75.8,30.08,SSE,154,5.0,5.0,80,0.00,,,0.00,690,Wunderground v.1.15,2013-06-10 14:12:00,
2013-06-10 10:17:00,83.6,76.0,30.08,SSE,151,5.0,5.0,78,0.00,,,0.00,234,Wunderground v.1.15,2013-06-10 14:17:00,
2013-06-10 10:22:00,84.7,76.3,30.08,SSE,160,5.0,5.0,76,0.00,,,0.00,245,Wunderground v.1.15,2013-06-10 14:22:00,
2013-06-10 10:32:00,83.8,75.4,30.07,ESE,113,6.0,7.0,76,0.00,,,0.00,245,Wunderground v.1.15,2013-06-10 14:32:00,
2013-06-10 10:37:00,84.9,76.9,30.07,ESE,119,6.0,10.0,77,0.00,,,0.00,890,Wunderground v.1.15,2013-06-10 14:37:00,
2013-06-10 10:42:00,85.7,76.5,30.07,SE,138,6.0,10.0,74,0.00,,,0.00,959,Wunderground v.1.15,2013-06-10 14:42:00,
2013-06-10 10:47:00,84.9,76.1,30.07,SE,140,6.0,10.0,75,0.00,,,0.00,216,Wunderground v.1.15,2013-06-10 14:47:00,
2013-06-10 10:57:00,84.3,75.5,30.07,SE,137,6.0,6.0,75,0.00,,,0.00,211,Wunderground v.1.15,2013-06-10 14:57:00,
2013-06-10 11:02:00,84.0,75.2,30.07,SE,127,5.0,7.0,75,0.00,,,0.00,169,Wunderground v.1.15,2013-06-10 15:02:00,
2013-06-10 11:07:00,84.3,75.9,30.07,SE,141,5.0,7.0,76,0.00,,,0.00,292,Wunderground v.1.15,2013-06-10 15:07:00,
2013-06-10 11:17:00,84.5,74.9,30.07,ESE,121,6.0,7.0,73,0.00,,,0.00,222,Wunderground v.1.15,2013-06-10 15:17:00,
2013-06-10 11:22:00,85.9,76.2,30.07,East,97,5.0,5.0,73,0.00,,,0.00,1049,Wunderground v.1.15,2013-06-10 15:22:00,
2013-06-10 11:27:00,86.5,75.5,30.07,ESE,110,6.0,6.0,70,0.00,,,0.00,1057,Wunderground v.1.15,2013-06-10 15:27:00,
2013-06-10 11:37:00,86.3,74.0,30.07,SE,138,5.0,5.0,67,0.00,,,0.00,1091,Wunderground v.1.15,2013-06-10 15:37:00,
2013-06-10 11:42:00,86.7,76.6,30.07,SE,128,5.0,6.0,72,0.00,,,0.00,1065,Wunderground v.1.15,2013-06-10 15:42:00,
2013-06-10 11:52:00,85.5,74.6,30.07,East,95,4.0,4.0,70,0.00,,,0.00,232,Wunderground v.1.15,2013-06-10 15:52:00,
2013-06-10 12:02:00,86.5,73.8,30.07,SSE,151,4.0,4.0,66,0.00,,,0.00,243,Wunderground v.1.15,2013-06-10 16:02:00,
2013-06-10 12:07:00,85.9,74.1,30.07,SE,131,5.0,6.0,68,0.00,,,0.00,318,Wunderground v.1.15,2013-06-10 16:07:00,
2013-06-10 12:12:00,85.7,73.5,30.07,SE,134,5.0,6.0,67,0.00,,,0.00,271,Wunderground v.1.15,2013-06-10 16:12:00,
2013-06-10 12:22:00,85.7,73.5,30.07,SW,224,3.0,5.0,67,0.00,,,0.00,255,Wunderground v.1.15,2013-06-10 16:22:00,
2013-06-10 12:27:00,86.3,74.9,30.07,SW,222,4.0,5.0,69,0.00,,,0.00,311,Wunderground v.1.15,2013-06-10 16:27:00,
2013-06-10 12:32:00,87.4,73.7,30.06,SSE,154,4.0,4.0,64,0.00,,,0.00,187,Wunderground v.1.15,2013-06-10 16:32:00,
2013-06-10 12:42:00,88.2,73.5,30.06,South,178,3.0,3.0,62,0.00,,,0.00,1103,Wunderground v.1.15,2013-06-10 16:42:00,
2013-06-10 12:47:00,88.4,73.7,30.06,SW,217,2.0,3.0,62,0.00,,,0.00,289,Wunderground v.1.15,2013-06-10 16:47:00,
2013-06-10 12:57:00,88.2,75.4,30.06,SSE,164,4.0,4.0,66,0.00,,,0.00,1117,Wunderground v.1.15,2013-06-10 16:57:00,
2013-06-10 13:02:00,88.8,74.6,30.06,SW,223,3.0,3.0,63,0.00,,,0.00,220,Wunderground v.1.15,2013-06-10 17:02:00,
2013-06-10 13:07:00,88.0,74.3,30.06,SE,130,3.0,4.0,64,0.00,,,0.00,238,Wunderground v.1.15,2013-06-10 17:07:00,
2013-06-10 13:12:00,87.6,74.4,30.06,SSW,213,2.0,2.0,65,0.00,,,0.00,211,Wunderground v.1.15,2013-06-10 17:12:00,
2013-06-10 13:22:00,87.4,74.6,30.06,SE,133,3.0,3.0,66,0.00,,,0.00,1211,Wunderground v.1.15,2013-06-10 17:22:00,
2013-06-10 13:27:00,88.6,74.4,30.06,SW,217,3.0,3.0,63,0.00,,,0.00,1181,Wunderground v.1.15,2013-06-10 17:27:00,
2013-06-10 13:37:00,88.0,74.8,30.06,SSE,150,2.0,4.0,65,0.00,,,0.00,334,Wunderground v.1.15,2013-06-10 17:37:00,
2013-06-10 13:47:00,89.0,74.8,30.06,WSW,243,4.0,4.0,63,0.00,,,0.00,1028,Wunderground v.1.15,2013-06-10 17:47:00,
2013-06-10 13:57:00,89.0,74.8,30.05,SSW,193,3.0,3.0,63,0.00,,,0.00,1026,Wunderground v.1.15,2013-06-10 17:57:00,
2013-06-10 14:02:00,90.1,75.8,30.05,ESE,123,3.0,5.0,63,0.00,,,0.00,1114,Wunderground v.1.15,2013-06-10 18:02:00,
2013-06-10 14:12:00,89.9,75.6,30.04,SW,224,3.0,3.0,63,0.00,,,0.00,1193,Wunderground v.1.15,2013-06-10 18:12:00,
2013-06-10 14:17:00,90.1,74.3,30.04,WSW,243,4.0,4.0,60,0.00,,,0.00,1070,Wunderground v.1.15,2013-06-10 18:17:00,
2013-06-10 14:22:00,90.5,75.2,30.04,West,261,3.0,7.0,61,0.00,,,0.00,1103,Wunderground v.1.15,2013-06-10 18:22:00,
2013-06-10 14:32:00,89.9,73.7,30.04,WSW,258,5.0,8.0,59,0.00,,,0.00,1057,Wunderground v.1.15,2013-06-10 18:32:00,
2013-06-10 14:37:00,90.7,73.9,30.04,SSW,193,5.0,8.0,58,0.00,,,0.00,1061,Wunderground v.1.15,2013-06-10 18:37:00,
2013-06-10 14:42:00,89.9,72.6,30.04,SSW,209,5.0,5.0,57,0.00,,,0.00,1061,Wunderground v.1.15,2013-06-10 18:42:00,
2013-06-10 14:47:00,90.3,74.0,30.04,West,260,6.0,8.0,59,0.00,,,0.00,911,Wunderground v.1.15,2013-06-10 18:47:00,
2013-06-10 14:52:00,89.9,73.7,30.04,South,185,6.0,6.0,59,0.00,,,0.00,878,Wunderground v.1.15,2013-06-10 18:52:00,
2013-06-10 15:02:00,89.9,73.1,30.04,SW,236,5.0,5.0,58,0.00,,,0.00,911,Wunderground v.1.15,2013-06-10 19:02:00,
2013-06-10 15:07:00,89.9,73.7,30.03,SW,217,6.0,11.0,59,0.00,,,0.00,890,Wunderground v.1.15,2013-06-10 19:07:00,
2013-06-10 15:17:00,89.9,73.1,30.03,SSW,208,6.0,6.0,58,0.00,,,0.00,876,Wunderground v.1.15,2013-06-10 19:17:00,
2013-06-10 15:22:00,89.7,74.0,30.03,SW,236,6.0,7.0,60,0.00,,,0.00,829,Wunderground v.1.15,2013-06-10 19:22:00,
2013-06-10 15:27:00,90.3,74.0,30.03,SW,217,6.0,7.0,59,0.00,,,0.00,781,Wunderground v.1.15,2013-06-10 19:27:00,
2013-06-10 15:32:00,90.5,72.7,30.03,SW,227,6.0,7.0,56,0.00,,,0.00,864,Wunderground v.1.15,2013-06-10 19:32:00,
2013-06-10 15:42:00,90.1,74.3,30.03,SW,227,5.0,5.0,60,0.00,,,0.00,874,Wunderground v.1.15,2013-06-10 19:42:00,
2013-06-10 15:52:00,90.7,73.4,30.03,SW,217,5.0,7.0,57,0.00,,,0.00,859,Wunderground v.1.15,2013-06-10 19:52:00,
2013-06-10 15:57:00,91.0,74.7,30.03,SW,222,5.0,7.0,59,0.00,,,0.00,825,Wunderground v.1.15,2013-06-10 19:57:00,
2013-06-10 16:02:00,90.5,74.2,30.03,SW,227,6.0,6.0,59,0.00,,,0.00,802,Wunderground v.1.15,2013-06-10 20:02:00,
2013-06-10 16:07:00,90.3,74.5,30.02,WNW,291,7.0,9.0,60,0.00,,,0.00,707,Wunderground v.1.15,2013-06-10 20:07:00,
2013-06-10 16:17:00,89.3,74.6,30.02,SW,233,7.0,7.0,62,0.00,,,0.00,788,Wunderground v.1.15,2013-06-10 20:17:00,
2013-06-10 16:27:00,89.5,74.3,30.02,NW,315,7.0,9.0,61,0.00,,,0.00,771,Wunderground v.1.15,2013-06-10 20:27:00,
2013-06-10 16:32:00,89.5,74.3,30.02,WNW,289,7.0,7.0,61,0.00,,,0.00,748,Wunderground v.1.15,2013-06-10 20:32:00,
2013-06-10 16:37:00,89.3,74.6,30.02,West,281,6.0,7.0,62,0.00,,,0.00,707,Wunderground v.1.15,2013-06-10 20:37:00,
2013-06-10 16:47:00,89.0,73.3,30.02,SW,220,6.0,6.0,60,0.00,,,0.00,704,Wunderground v.1.15,2013-06-10 20:47:00,
2013-06-10 16:52:00,89.3,73.6,30.02,SSW,206,6.0,8.0,60,0.00,,,0.00,669,Wunderground v.1.15,2013-06-10 20:52:00,
2013-06-10 17:02:00,89.0,74.3,30.01,WNW,296,5.0,9.0,62,0.00,,,0.00,642,Wunderground v.1.15,2013-06-10 21:02:00,
2013-06-10 17:12:00,89.5,74.8,30.01,WNW,298,5.0,5.0,62,0.00,,,0.00,602,Wunderground v.1.15,2013-06-10 21:12:00,
2013-06-10 17:17:00,89.5,74.8,30.01,West,270,5.0,5.0,62,0.00,,,0.00,556,Wunderground v.1.15,2013-06-10 21:17:00,
2013-06-10 17:22:00,89.3,74.1,30.01,SW,236,5.0,5.0,61,0.00,,,0.00,582,Wunderground v.1.15,2013-06-10 21:22:00,
2013-06-10 17:27:00,89.3,74.1,30.01,SSW,193,5.0,5.0,61,0.00,,,0.00,561,Wunderground v.1.15,2013-06-10 21:27:00,
2013-06-10 17:32:00,89.7,74.0,30.01,WNW,292,3.0,7.0,60,0.00,,,0.00,435,Wunderground v.1.15,2013-06-10 21:32:00,
2013-06-10 17:37:00,89.5,73.3,30.01,NW,305,4.0,7.0,59,0.00,,,0.00,487,Wunderground v.1.15,2013-06-10 21:37:00,
2013-06-10 17:42:00,89.0,73.3,30.01,West,274,5.0,6.0,60,0.00,,,0.00,493,Wunderground v.1.15,2013-06-10 21:42:00,
2013-06-10 17:47:00,89.0,73.8,30.01,WNW,285,4.0,6.0,61,0.00,,,0.00,496,Wunderground v.1.15,2013-06-10 21:47:00,
2013-06-10 17:57:00,88.8,74.1,30.01,NNW,336,4.0,6.0,62,0.00,,,0.00,426,Wunderground v.1.15,2013-06-10 21:57:00,
2013-06-10 18:02:00,88.6,73.9,30.01,WNW,282,4.0,8.0,62,0.00,,,0.00,188,Wunderground v.1.15,2013-06-10 22:02:00,
2013-06-10 18:07:00,88.4,74.2,30.01,NNW,342,3.0,8.0,63,0.00,,,0.00,422,Wunderground v.1.15,2013-06-10 22:07:00,
2013-06-10 18:12:00,88.2,74.0,30.01,West,270,4.0,7.0,63,0.00,,,0.00,433,Wunderground v.1.15,2013-06-10 22:12:00,
2013-06-10 18:17:00,87.8,73.6,30.02,South,191,5.0,7.0,63,0.00,,,0.00,417,Wunderground v.1.15,2013-06-10 22:17:00,
2013-06-10 18:22:00,87.6,73.4,30.02,WSW,244,5.0,6.0,63,0.00,,,0.00,387,Wunderground v.1.15,2013-06-10 22:22:00,
2013-06-10 18:27:00,87.4,73.7,30.02,West,267,5.0,6.0,64,0.00,,,0.00,239,Wunderground v.1.15,2013-06-10 22:27:00,
2013-06-10 18:32:00,87.4,74.2,30.02,NNW,329,5.0,7.0,65,0.00,,,0.00,95,Wunderground v.1.15,2013-06-10 22:32:00,
2013-06-10 18:37:00,87.0,73.8,30.02,WSW,254,5.0,7.0,65,0.00,,,0.00,201,Wunderground v.1.15,2013-06-10 22:37:00,
2013-06-10 18:47:00,87.0,74.7,30.02,NW,305,4.0,6.0,67,0.00,,,0.00,100,Wunderground v.1.15,2013-06-10 22:47:00,
2013-06-10 18:52:00,86.7,74.4,30.02,NW,308,5.0,5.0,67,0.00,,,0.00,104,Wunderground v.1.15,2013-06-10 22:52:00,
2013-06-10 18:57:00,86.5,74.7,30.02,NNW,335,5.0,5.0,68,0.00,,,0.00,104,Wunderground v.1.15,2013-06-10 22:57:00,
2013-06-10 19:02:00,86.1,74.3,30.03,NW,308,5.0,5.0,68,0.00,,,0.00,99,Wunderground v.1.15,2013-06-10 23:02:00,
2013-06-10 19:07:00,86.1,74.7,30.03,NW,306,4.0,5.0,69,0.00,,,0.00,104,Wunderground v.1.15,2013-06-10 23:07:00,
2013-06-10 19:17:00,85.7,74.4,30.03,NW,318,3.0,4.0,69,0.00,,,0.00,91,Wunderground v.1.15,2013-06-10 23:17:00,
2013-06-10 19:27:00,85.3,74.4,30.03,North,357,4.0,6.0,70,0.00,,,0.00,60,Wunderground v.1.15,2013-06-10 23:27:00,
2013-06-10 19:32:00,84.9,74.4,30.03,NW,312,3.0,5.0,71,0.00,,,0.00,53,Wunderground v.1.15,2013-06-10 23:32:00,
2013-06-10 19:37:00,84.7,74.3,30.03,North,353,3.0,5.0,71,0.00,,,0.00,48,Wunderground v.1.15,2013-06-10 23:37:00,
2013-06-10 19:42:00,84.5,74.1,30.03,North,10,2.0,2.0,71,0.00,,,0.00,49,Wunderground v.1.15,2013-06-10 23:42:00,
2013-06-10 19:52:00,84.3,74.7,30.04,North,350,2.0,2.0,73,0.00,,,0.00,53,Wunderground v.1.15,2013-06-10 23:52:00,
2013-06-10 19:57:00,84.3,74.7,30.04,NW,322,3.0,3.0,73,0.00,,,0.00,49,Wunderground v.1.15,2013-06-10 23:57:00,
2013-06-10 20:07:00,84.0,75.2,30.04,NNW,329,3.0,5.0,75,0.00,,,0.00,12,Wunderground v.1.15,2013-06-11 00:07:00,
2013-06-10 20:12:00,84.0,75.2,30.04,NNW,346,3.0,3.0,75,0.00,,,0.00,5,Wunderground v.1.15,2013-06-11 00:12:00,
2013-06-10 20:22:00,83.4,75.0,30.04,NW,326,4.0,4.0,76,0.00,,,0.00,0,Wunderground v.1.15,2013-06-11 00:22:00,
2013-06-10 20:32:00,83.2,74.8,30.04,NW,325,3.0,3.0,76,0.00,,,0.00,0,Wunderground v.1.15,2013-06-11 00:32:00,
2013-06-10 20:37:00,83.2,74.8,30.04,NW,325,2.0,3.0,76,0.00,,,0.00,0,Wunderground v.1.15,2013-06-11 00:37:00,
2013-06-10 20:42:00,83.0,74.6,30.04,NNW,328,1.0,1.0,76,0.00,,,0.00,0,Wunderground v.1.15,2013-06-11 00:42:00,
2013-06-10 20:47:00,82.6,73.9,30.04,NNE,13,2.0,2.0,75,0.00,,,0.00,0,Wunderground v.1.15,2013-06-11 00:47:00,
2013-06-10 20:57:00,81.8,73.1,30.04,ENE,71,1.0,5.0,75,0.00,,,0.00,0,Wunderground v.1.15,2013-06-11 00:57:00,
2013-06-10 21:02:00,81.4,72.3,30.04,ENE,68,2.0,4.0,74,0.00,,,0.00,0,Wunderground v.1.15,2013-06-11 01:02:00,
2013-06-10 21:12:00,81.2,72.1,30.04,NE,47,1.0,1.0,74,0.00,,,0.00,0,Wunderground v.1.15,2013-06-11 01:12:00,
2013-06-10 21:17:00,81.1,72.4,30.04,ENE,68,1.0,1.0,75,0.00,,,0.00,0,Wunderground v.1.15,2013-06-11 01:17:00,
2013-06-10 21:27:00,80.9,72.2,30.04,ENE,68,0.0,1.0,75,0.00,,,0.00,0,Wunderground v.1.15,2013-06-11 01:27:00,
2013-06-10 21:32:00,80.9,72.6,30.04,ENE,68,0.0,0.0,76,0.00,,,0.00,0,Wunderground v.1.15,2013-06-11 01:32:00,
2013-06-10 21:37:00,80.7,72.4,30.05,ENE,61,0.0,0.0,76,0.00,,,0.00,0,Wunderground v.1.15,2013-06-11 01:37:00,
2013-06-10 21:42:00,80.5,72.2,30.05,ENE,61,0.0,0.0,76,0.00,,,0.00,0,Wunderground v.1.15,2013-06-11 01:42:00,
2013-06-10 21:52:00,80.3,72.4,30.04,ENE,61,1.0,1.0,77,0.00,,,0.00,0,Wunderground v.1.15,2013-06-11 01:52:00,
2013-06-10 22:02:00,80.1,72.2,30.05,ENE,61,1.0,2.0,77,0.00,,,0.00,0,Wunderground v.1.15,2013-06-11 02:02:00,
2013-06-10 22:07:00,80.1,72.6,30.05,ENE,65,1.0,2.0,78,0.00,,,0.00,0,Wunderground v.1.15,2013-06-11 02:07:00,
2013-06-10 22:12:00,79.9,72.4,30.04,ENE,65,1.0,1.0,78,0.00,,,0.00,0,Wunderground v.1.15,2013-06-11 02:12:00,
2013-06-10 22:22:00,79.9,72.8,30.04,ENE,65,0.0,0.0,79,0.00,,,0.00,0,Wunderground v.1.15,2013-06-11 02:22:00,
2013-06-10 22:32:00,79.8,72.7,30.05,ENE,65,0.0,0.0,79,0.00,,,0.00,0,Wunderground v.1.15,2013-06-11 02:32:00,
2013-06-10 22:42:00,79.6,72.5,30.06,East,83,1.0,1.0,79,0.00,,,0.00,0,Wunderground v.1.15,2013-06-11 02:42:00,
2013-06-10 22:47:00,79.6,72.5,30.06,East,83,1.0,1.0,79,0.00,,,0.00,0,Wunderground v.1.15,2013-06-11 02:47:00,
2013-06-10 22:52:00,79.4,72.7,30.06,East,83,1.0,2.0,80,0.00,,,0.00,0,Wunderground v.1.15,2013-06-11 02:52:00,
2013-06-10 23:02:00,79.4,72.7,30.06,East,80,1.0,2.0,80,0.00,,,0.00,0,Wunderground v.1.15,2013-06-11 03:02:00,
2013-06-10 23:12:00,79.4,73.1,30.06,East,80,1.0,1.0,81,0.00,,,0.00,0,Wunderground v.1.15,2013-06-11 03:12:00,
2013-06-10 23:17:00,79.4,73.1,30.06,East,80,0.0,2.0,81,0.00,,,0.00,0,Wunderground v.1.15,2013-06-11 03:17:00,
2013-06-10 23:22:00,79.4,73.1,30.07,ENE,78,0.0,0.0,81,0.00,,,0.00,0,Wunderground v.1.15,2013-06-11 03:22:00,
2013-06-10 23:27:00,79.4,73.1,30.07,East,80,1.0,2.0,81,0.00,,,0.00,0,Wunderground v.1.15,2013-06-11 03:27:00,
2013-06-10 23:32:00,79.4,73.1,30.06,East,88,2.0,2.0,81,0.00,,,0.00,0,Wunderground v.1.15,2013-06-11 03:32:00,
2013-06-10 23:37:00,79.2,72.9,30.07,East,97,2.0,2.0,81,0.00,,,0.00,0,Wunderground v.1.15,2013-06-11 03:37:00,